Weather History for West Palm Beach, FL

Change the Weather History Date:

Sunday, February 27, 2011

  Actual Average Record
Temperature  
Mean Temperature 73 °F 69 °F  
Max Temperature 83 °F 78 °F 89 °F (1959)
Min Temperature 63 °F 61 °F 40 °F (1965)
Degree Days  
Heating Degree Days 0 1  
Month to date heating degree days 14 47  
Since 1 July heating degree days 303 204  
Cooling Degree Days 8 5  
Month to date cooling degree days 168 123  
Year to date cooling degree days 269 231  
Growing Degree Days 22 (Base 50)    
Moisture  
Dew Point 65 °F    
Average Humidity 74    
Maximum Humidity 93    
Minimum Humidity 55    
Precipitation  
Precipitation 0.00 in 0.11 in 2.25 in (1983)
Month to date precipitation 0.89 2.70  
Year to date precipitation 2.65 5.83  
Snow  
Snow 0.00 in - - ()
Month to date snowfall 0.0  
Since 1 July snowfall 0.0  
Snow Depth 0.00 in    
Sea Level Pressure  
Sea Level Pressure 30.11 in    
Wind  
Wind Speed 9 mph (SE)    
Max Wind Speed 20 mph    
Max Gust Speed 26 mph    
Visibility 10 miles    
Events      
T = Trace of Precipitation, MM = Missing Value Source: NWS Daily Summary

Daily Weather History Graph

Daily Weather History Graph

Search for Another Location

Airport:

Trip Planner

Search our weather history database for the weather conditions in past years. The results will help you decide how hot, cold, wet, or windy it might be!

Date:

Astronomy

Feb. 27, 2011 Rise Set
Actual Time 6:46 AM EST 6:20 PM EST
Civil Twilight 6:23 AM EST 6:43 PM EST
Nautical Twilight 5:56 AM EST 7:10 PM EST
Astronomical Twilight 5:29 AM EST 7:37 PM EST
Moon 3:11 AM EST (2/27) 1:57 PM EST (2/27)
Length of Visible Light 12h 20m
Length of Day
11h 33m
Waning Crescent, 23% of the Moon is Illuminated
Feb 27
Waning Crescent
Mar 4
New
Mar 12
First Quarter
Mar 19
Full
Mar 26
Last Quarter

Hourly Weather History & Observations

Time (EST) Temp. Heat Index Dew Point Humidity Pressure Visibility Wind Dir Wind Speed Gust Speed Precip Events Conditions
12:53 AM 72.0 °F - 64.9 °F 78% 30.09 in 10.0 mi SE 5.8 mph - N/A   Clear
1:53 AM 71.1 °F - 66.0 °F 84% 30.08 in 10.0 mi SE 5.8 mph - N/A   Clear
2:53 AM 71.1 °F - 66.0 °F 84% 30.07 in 10.0 mi SSE 5.8 mph - N/A   Clear
3:53 AM 64.9 °F - 63.0 °F 93% 30.08 in 10.0 mi NW 4.6 mph - N/A   Clear
4:53 AM 64.0 °F - 62.1 °F 93% 30.09 in 10.0 mi NNW 3.5 mph - N/A   Partly Cloudy
5:53 AM 64.9 °F - 63.0 °F 93% 30.10 in 10.0 mi NNW 4.6 mph - N/A   Partly Cloudy
6:53 AM 63.0 °F - 61.0 °F 93% 30.12 in 10.0 mi Calm Calm - N/A   Partly Cloudy
7:53 AM 68.0 °F - 64.0 °F 87% 30.13 in 10.0 mi Calm Calm - N/A   Partly Cloudy
8:53 AM 77.0 °F - 66.9 °F 71% 30.14 in 10.0 mi SE 9.2 mph - N/A   Scattered Clouds
9:53 AM 80.1 °F 82.1 °F 66.0 °F 62% 30.15 in 10.0 mi SE 16.1 mph - N/A   Scattered Clouds
10:53 AM 80.1 °F 82.1 °F 66.0 °F 62% 30.16 in 10.0 mi ESE 17.3 mph 24.2 mph N/A   Scattered Clouds
11:53 AM 82.9 °F 85.0 °F 66.0 °F 56% 30.14 in 10.0 mi SE 17.3 mph 24.2 mph N/A   Mostly Cloudy
12:53 PM 82.0 °F 83.8 °F 64.9 °F 56% 30.12 in 10.0 mi SE 16.1 mph 24.2 mph N/A   Scattered Clouds
1:53 PM 82.0 °F 83.8 °F 64.9 °F 56% 30.10 in 10.0 mi SE 16.1 mph - N/A   Scattered Clouds
2:53 PM 81.0 °F 82.7 °F 64.9 °F 58% 30.08 in 10.0 mi SSE 16.1 mph - N/A   Scattered Clouds
3:53 PM 81.0 °F 82.7 °F 64.9 °F 58% 30.07 in 10.0 mi SE 15.0 mph - N/A   Scattered Clouds
4:53 PM 80.1 °F 81.9 °F 64.9 °F 60% 30.07 in 10.0 mi SE 15.0 mph 20.7 mph N/A   Partly Cloudy
5:53 PM 78.1 °F - 66.9 °F 68% 30.08 in 10.0 mi SE 16.1 mph - N/A   Partly Cloudy
6:53 PM 75.9 °F - 64.0 °F 67% 30.09 in 10.0 mi SSE 10.4 mph - N/A   Clear
7:53 PM 75.0 °F - 64.9 °F 71% 30.10 in 10.0 mi SE 8.1 mph - N/A   Clear
8:53 PM 73.9 °F - 66.0 °F 76% 30.11 in 10.0 mi SE 6.9 mph - N/A   Partly Cloudy
9:53 PM 73.9 °F - 66.9 °F 79% 30.12 in 10.0 mi SE 5.8 mph - N/A   Partly Cloudy
10:53 PM 73.0 °F - 66.9 °F 81% 30.12 in 10.0 mi SE 3.5 mph - N/A   Clear
11:53 PM 72.0 °F - 64.9 °F 78% 30.12 in 10.0 mi SE 4.6 mph - N/A   Partly Cloudy